{"data":{"norad_id":58821,"epoch":"2026-05-25T05:58:42.456000Z","epoch_age_seconds":53050,"freshness":"FRESH","line1":"1 58821U 24016B   26145.24910250  .00101294  00000+0  90602-3 0  9994","line2":"2 58821  97.4464 240.7400 0005620 157.4293 202.7216 15.68030396130578","mean_motion":15.68030396,"eccentricity":0.000562,"inclination_deg":97.4464,"raan_deg":240.74,"arg_perigee_deg":157.4293,"mean_anomaly_deg":202.7216,"bstar":0.00090602,"rev_number":13057,"period_min":91.834954454544,"perigee_km":360.74804093216,"apogee_km":368.32680698469,"semimajor_km":6742.6744239584,"source":"CELESTRAK","updated_at":"2026-05-25T13:38:01.003375Z"}}